Погода в Махновке

Россия / Псковская область     57°24′10″N   29°20′44″E
темп.,
°C
ветер,
м/с
пор.,
м/с
влажн.,
%
обл.,
%
осадки,
мм/ч
давл.,
гПа
погр.,
м
6 мая, чт
чт600:00+6ююв31096100 0.1 1000232
03:00+6юв2495100 1.3 99888
06:00+5с2698100 4.3 995247
09:00+5сз2598100 10.7 995545
12:00+7зюз4590100 2.0 995769
15:00+9юз5985100 2.8 9961365
18:00+6юз7129098 1.1 9971213
21:00+4юз61294100 1.5 9991012
7 мая, пт
пт700:00+4юз61292100 0.1 10001118
03:00+4юз61388100 0.2 10011283
06:00+3юз6128897 0.0 1002972
09:00+6юз6117398 0.1 10031314
12:00+8юз596393 0.3 10041536
15:00+9юз495898 0.3 10051446
18:00+10зюз2556100 0.0 10041391
21:00+6в1173100 0.1 100410
8 мая, сб
сб800:00+5в2394100 0.9 100398
03:00+5с2497100 3.0 1001242
06:00+4ссз3796100 1.7 1001760
09:00+5сз2597100 2.9 1002801
12:00+6сз4694100 0.9 1003873
15:00+4зсз5997100 1.8 1005715
18:00+5зсз51089100 0.3 1006861
21:00+3зсз410895 0.3 1008600
9 мая, вс
вс900:00+2зсз4138997 0.0 1010714
03:00+1зсз413865 0.0 1013472
06:000з311913 0.0 1016363
09:00+6з48600 0.0 1017741
12:00+10зюз4642100 0.0 10191494
15:00+11юз5740100 0.0 10191791
18:00+11юз4751100 0.0 10201786
21:00+6ю367359 0.0 1021119
10 мая, пн
пн1000:00+5ю4117587 0.0 1022263
03:00+6ю41386100 0.2 1022485
06:00+8ююз51476100 0.0 1023516
09:00+12ююз5136691 0.0 1023548
12:00+16ююз695087 0.0 10241044
15:00+18ююз694745 0.0 10241380
18:00+18ююз510565 0.0 10231289
21:00+13ю4127467 0.0 1024467